Location: Champaign/Urbana Astronomical Society Observatory
(40.0333°N, 88.2833°W)
Time: 18:18:21
(UTC-05:00)

Hubble Space Telescope - Visible Passes

Search period start: 22 September 2018 00:00
Search period end: 02 October 2018 00:00
Orbit: 537 x 541 km, 28.5° (Epoch: 22 September)

Date Brightness Start Highest point End Pass type
(mag) Time Alt. Az. Time Alt. Az. Time Alt. Az.
22 Sep 3.0 20:32:09 10° SW 20:34:17 14° S 20:34:29 14° S visible
23 Sep 3.1 20:21:59 10° SW 20:23:46 12° SSW 20:24:39 12° S visible
24 Sep 3.2 20:12:03 10° SSW 20:13:15 11° SSW 20:14:25 10° S visible
